www.pogodaiklimat.ru

Погода и климат >> Архив погоды >> Франция >> Paris Orly Airport


АРХИВ ПОГОДЫ в Paris Orly Airport

Время (UTC), дата Ветер
(напр.,м/с)
 
Видим.   Явления Облачность Т
(С)
Тd
(С)
f
(%)
Тe
(С)
Тes
(С)
Комфортность P
(гПа)
Po
(гПа)
Тmin
(С)
Tmax
(С)
R
(мм)
R24
(мм)
S
(см)
14 8.12 З 4 45 км {ливн. осадки, дождь} 10/9 420 м
[]
+3.5 +0.9 83 -1 -1 по сезону 1018.1 1006.9 0.0
13 8.12 З 4 26 км {ливн. осадки, дождь} 8/8 420 м
[Cu Sc]
+3.8 +1.0 82 -1 -1 по сезону 1017.9 1006.7
15 8.12 З 3 35 км {ливн. осадки, дождь} н/о +3.3 +0.9 84 -0 -0 прохладно 1018.6 1007.4
16 8.12 З 4 10 км слабый дождь со снегом {ливн. осадки} 10/10 330 м
[]
+2.1 -0.2 85 -3 -3 по сезону 1019.1 1007.8 0.8
17 8.12 З 2 25 км {ливн. осадки, дождь} 1/1 600 м
[Cu Sc]
+1.2 -0.3 90 -2 -2 по сезону 1019.1 1007.8 0.2
18 8.12 З 3 25 км {ливн. осадки, снег} 1/1 600 м
[Cu Sc]
+1.1 -0.7 88 -3 -3 холодно 1019.5 1008.2 +0.8 +5.6 1
20 8.12 З 3 40 км 4/4 480 м
[Cu Sc]
+0.8 -1.1 87 -3 -3 по сезону 1020.1 1008.8
19 8.12 З 3 40 км 3/3 1000 м
[Cu Sc]
+1.1 -0.8 87 -3 -3 по сезону 1019.9 1008.6
21 8.12 З 3 25 км 6/6 1200 м
[Sc]
+0.8 -1.3 86 -3 -3 прохладно 1020.4 1009.1
22 8.12 З 3 30 км слабый снег 8/8 1200 м
[Sc]
+0.5 -1.3 88 -4 -4 по сезону 1020.7 1009.3
23 8.12 З 2 19 км {снег} 8/4 420 м
[]
+0.7 -0.8 90 -2 -2 по сезону 1020.8 1009.4 0.0
00 9.12 З 1 30 км {снег} 6/4 2000 м
[Sc Ac trans]
+0.2 -1.4 89 -2 -2 прохладно 1020.3 1008.9 0.0
02 9.12 З 1 15 км слабый снег 8/8 630 м
[Sc]
+0.1 -1.3 90 -1 -1 тепло 1020.9 1009.5 0.0
01 9.12 З 1 20 км 4/4 1500 м
[Sc]
-0.3 -1.9 89 -1 -1 по сезону 1020.5 1009.1
03 9.12 З 2 30 км {снег} 5/5 1080 м
[Sc]
-0.4 -1.8 90 -4 -4 прохладно 1020.6 1009.2 0.0 <0.5
04 9.12 З 2 30 км 3/3 1200 м
[Sc]
-0.5 -1.9 90 -4 -4 по сезону 1020.7 1009.3
05 9.12 З 2 20 км 1/1 1380 м
[Sc]
-0.6 -2.0 90 -4 -4 по сезону 1020.8 1009.4
06 9.12 З 2 20 км {снег} ясно -1.3 -2.4 92 -5 -5 холодно 1020.9 1009.5 -1.6 +1.3 0.0 <0.5
08 9.12 З 2 25 км ясно -0.6 -1.7 92 -5 -5 по сезону 1021.2 1009.8
07 9.12 З 2 20 км ясно -0.8 -1.9 92 -5 -5 прохладно 1021.0 1009.6
09 9.12 З 2 25 км 1/1 270 м
[Sc Ci fib]
+0.5 -1.1 89 -3 -3 прохладно 1021.6 1010.2 <0.5
10 9.12 З 2 20 км 1/1 300 м
[Sc Ci fib]
+1.7 -0.9 83 -1 0 по сезону 1021.5 1010.2
11 9.12 З 3 25 км 1/1 300 м
[Sc Ci fib]
+2.9 0.0 81 -1 +1 по сезону 1021.0 1009.7
12 9.12 З 3 19 км н/о +4.2 0.0 74 +1 +1 по сезону 1020.4 1009.2
14 9.12 ЮЗ 2 35 км 8/1 600 м
[Cu hum Ac trans Ci fib]
+4.2 -0.2 73 +2 +2 тепло 1018.9 1007.7
13 9.12 ЮЗ 2 23 км 8/1 480 м
[Cu hum Ci fib]
+4.4 -0.6 70 +2 +4 по сезону 1019.7 1008.5
15 9.12 ЮЗ 2 25 км 9/1 630 м
[Cu hum Ac trans Ci fib]
+3.2 -0.3 78 0 0 прохладно 1018.3 1007.1
16 9.12 ЮЗ 2 25 км 9/8 1500 м
[Sc]
+2.6 -0.3 81 0 0 тепло 1017.6 1006.4
17 9.12 Ю 2 18 км 10/8 300 м
[]
+2.2 -0.1 85 -0 -0 по сезону 1016.7 1005.5
18 9.12 Ю 2 14 км 9/9 200 м
[St]
+2.1 +0.2 87 -1 -1 прохладно 1016.0 1004.8 -1.2 +5.0
20 9.12 Ю 2 12 км 9/9 300 м
[St]
+2.5 +0.6 87 -1 -1 тепло 1014.4 1003.2
19 9.12 Ю 2 15 км 9/9 270 м
[St]
+2.6 +0.7 87 0 0 по сезону 1015.3 1004.1
21 9.12 Ю 2 17 км 9/9 300 м
[St]
+2.3 +0.5 88 -0 -0 по сезону 1013.2 1002.0
22 9.12 Ю 1 16 км 9/9 300 м
[Sc]
+2.2 +0.6 89 0 0 тепло 1012.2 1001.0
23 9.12 Ю 2 19 км 10/4 450 м
[]
+2.7 +0.6 86 0 0 по сезону 1010.8 999.6
00 10.12 Ю 2 20 км 9/9 300 м
[Sc]
+2.7 +0.9 88 -1 -1 по сезону 1009.2 998.1
02 10.12 Ю 2 20 км слабый дождь {морось} 9/9 270 м
[Frnb]
+2.4 +0.8 89 -1 -1 тепло 1005.3 994.2 0.0
01 10.12 Ю 2 20 км слабая морось {дождь} 9/9 270 м
[Frnb]
+2.4 +0.9 90 -1 -1 по сезону 1007.4 996.3 0.0
03 10.12 Ю 3 15 км слабый дождь {морось} 10/10 210 м
[Frnb]
+2.0 +0.7 91 -2 -2 прохладно 1002.8 991.7 0.4
04 10.12 Ю 3 10 км слабый дождь со снегом 10/10 180 м
[Frnb]
+1.5 +0.3 92 -3 -3 тепло 999.8 988.7 0.6
05 10.12 Ю 3 8000 м слабый дождь со снегом 10/10 150 м
[Frnb]
+0.7 -0.2 94 -4 -4 по сезону 996.3 985.2 0.8
06 10.12 Ю 3 6000 м слабый дождь {снег} 10/10 100 м
[Frnb]
+1.3 +0.6 95 -3 -3 прохладно 992.7 981.7 +0.6 +2.8 4
08 10.12 Ю 1 2700 м слабый дождь 10/10 150 м
[Frnb]
+2.8 +2.2 96 +1 +1 тепло 987.0 976.1 1
07 10.12 Ю 3 6000 м слабый дождь 10/10 180 м
[Frnb]
+1.7 +0.8 94 -3 -3 по сезону 989.3 978.3 3
09 10.12 Ю 3 20 км слабый дождь 10/10 270 м
[Frnb]
+4.8 +4.4 97 +1 +1 по сезону 984.9 974.1 5
10 10.12 ЮЗ 3 45 км {дождь} 9/8 270 м
[]
+7.8 +7.0 95 +5 +5 тепло 984.4 973.7 0.2
11 10.12 З 6 30 км 8/6 1000 м
[Cu Sc Ac trans]
+10.5 +4.6 67 +8 +8 тепло 984.4 973.8
12 10.12 З 5 7000 м {дождь} 5/4 1230 м
[Cu Sc Ac trans Ci fib]
+10.1 +3.1 62 +7 +8 тепло 984.8 974.2 0.2
14 10.12 ЮЗ 5 18 км 8/3 1230 м
[Cu hum Ci sp]
+9.6 +3.1 64 +7 +7 тепло 984.7 974.1
13 10.12 З 5 9000 м 8/4 1200 м
[Sc Ci sp]
+9.8 +2.9 62 +7 +7 тепло 984.8 974.2
15 10.12 ЮЗ 5 30 км 9/5 1110 м
[Cu hum Ac trans Ci sp]
+9.2 +3.6 68 +6 +6 по сезону 984.4 973.8
16 10.12 ЮЗ 4 20 км слабый дождь 9/6 1020 м
[Sc Ac und]
+9.1 +4.1 71 +7 +7 тепло 983.7 973.1 0.0
17 10.12 ЮЗ 5 15 км слабый дождь 9/9 700 м
[Sc]
+9.2 +5.6 78 +6 +6 тепло 982.8 972.2 0.0
18 10.12 ЮЗ 3 11 км слабый дождь 9/9 300 м
[Cu Sc]
+8.8 +6.2 84 +6 +6 тепло 984.1 973.5 +1.3 +10.5 1
20 10.12 ЮЗ 3 20 км 9/5 900 м
[Sc Ac trans]
+8.5 +5.1 79 +6 +6 тепло 984.3 973.7
19 10.12 ЮЗ 3 20 км в посл. час дождь 9/1 900 м
[Cu Sc Ci sp]
+8.6 +5.2 79 +6 +6 тепло 984.1 973.5 0.0
21 10.12 ЮЗ 2 20 км {дождь} 9/8 700 м
[Sc]
+7.9 +5.0 82 +6 +6 тепло 984.0 973.3 0.0
22 10.12 ЮЗ 2 20 км 9/5 800 м
[Sc Ac trans]
+7.4 +4.9 84 +6 +6 тепло 984.1 973.4
23 10.12 Ю 1 19 км 10/4 700 м
[]
+7.6 +5.6 87 +7 +7 тепло 983.6 972.9
00 11.12 Ю 1 16 км {дождь} 10/8 300 м
[]
+7.6 +5.7 88 +7 +7 тепло 982.3 971.7
02 11.12 В 2 5000 м слабый дождь 10/9 90 м
[Frnb]
+7.5 +6.8 95 +6 +6 тепло 979.4 968.8 1
01 11.12 В 2 20 км слабый дождь 10/9 240 м
[Sc]
+7.5 +6.4 93 +6 +6 тепло 980.6 970.0 1
03 11.12 ЮВ 2 6000 м слабый дождь 10/9 150 м
[Frnb]
+7.6 +7.0 96 +5 +5 тепло 977.2 966.6 5
04 11.12 ЮВ 3 5000 м слабый дождь 10/9 120 м
[Frnb]
+7.4 +6.7 95 +5 +5 тепло 974.6 964.0 4
05 11.12 ЮВ 2 4000 м слабый дождь 10/9 120 м
[Frnb]
+7.5 +6.9 96 +6 +6 тепло 972.2 961.7 5
06 11.12 Ю 4 12 км слабый дождь 10/9 200 м
[Frnb]
+8.6 +7.7 94 +6 +6 тепло 971.3 960.8 +7.4 +8.8 16
08 11.12 Ю 5 25 км 10/8 960 м
[Sc Ac As]
+9.8 +5.0 72 +7 +7 тепло 971.2 960.8 0.0
07 11.12 Ю 4 25 км в посл. час дождь 10/9 800 м
[Sc]
+9.5 +7.4 87 +7 +7 тепло 971.0 960.6 0.0
09 11.12 Ю 6 25 км {дождь} 9/9 1110 м
[Sc]
+9.7 +3.6 66 +7 +7 тепло 970.5 960.1 0.0
10 11.12 Ю 6 20 км слабый дождь 10/10 840 м
[Sc]
+8.5 +3.9 73 +5 +5 тепло 970.4 959.9 0.0
11 11.12 Ю 7 18 км в посл. час дождь 10/10 700 м
[Cu Sc]
+8.3 +3.7 73 +4 +4 тепло 970.1 959.6 0.4
12 11.12 ЮЗ 7 25 км {дождь} 10/10 700 м
[Sc]
+8.1 +3.9 75 +4 +4 по сезону 970.9 960.4 0.4
14 11.12 ЮЗ 5 30 км {дождь} 9/9 420 м
[Sc]
+6.7 +3.8 82 +3 +3 тепло 972.6 962.0 0.0
13 11.12 ЮЗ 6 22 км в посл. час дождь 10/10 450 м
[Sc]
+6.6 +4.1 84 +2 +2 по сезону 972.0 961.4 0.0
15 11.12 ЮЗ 3 9000 м слабый дождь 10/10 360 м
[Sc]
+6.5 +4.2 85 +3 +3 по сезону 975.0 964.4 0.0
16 11.12 ЮЗ 2 9000 м слабый дождь 10/10 240 м
[Sc]
+6.2 +4.5 89 +4 +4 тепло 976.7 966.1 0.2
17 11.12 СЗ 5 25 км в посл. час дождь 10/10 330 м
[Frnb]
+3.3 +0.7 83 -2 -2 по сезону 980.4 969.6 0.2
18 11.12 С 4 25 км {дождь} 10/10 300 м
[]
+3.1 -0.5 77 -2 -2 прохладно 984.3 973.4 +3.0 +9.9 0.4
20 11.12 СЗ 3 60 км 10/10 720 м
[]
+4.1 -0.5 72 +1 +1 тепло 990.4 979.5 0.0
19 11.12 СЗ 4 19 км 10/10 600 м
[]
+3.3 -0.2 78 -1 -1 по сезону 987.5 976.6 0.0
21 11.12 З 3 60 км 10/10 800 м
[]
+3.8 -0.2 75 +1 +1 по сезону 993.2 982.3 0.0
22 11.12 З 3 23 км 10/9 570 м
[]
+3.6 +0.6 81 0 0 тепло 995.8 984.8
23 11.12 З 2 9000 м слабый дождь 10/9 480 м
[]
+2.6 +1.1 90 0 0 по сезону 998.0 987.0 1
00 12.12 З 2 40 км 10/9 420 м
[]
+2.9 +1.4 90 0 0 по сезону 999.6 988.6 2
02 12.12 З 2 40 км н/о +1.8 -0.1 87 -2 -2 тепло 1001.9 990.8
01 12.12 З 2 35 км н/о +2.3 +0.7 89 -1 -1 по сезону 1000.8 989.7
03 12.12 З 2 35 км н/о +0.7 -1.1 88 -2 -2 по сезону 1003.5 992.3
04 12.12 З 2 35 км н/о +0.6 -1.0 89 -2 -2 тепло 1004.8 993.6
05 12.12 З 2 30 км н/о -0.1 -1.5 90 -4 -4 по сезону 1006.5 995.3
06 12.12 З 2 29 км н/о +0.3 -1.1 90 -3 -3 прохладно 1007.9 996.7 -0.4 +4.1 2
08 12.12 ЮЗ 2 19 км 10/10 1200 м
[]
+0.6 -0.7 91 -2 -2 по сезону 1010.3 999.1
07 12.12 ЮЗ 2 27 км н/о 0.0 -1.4 90 -3 -3 по сезону 1009.4 998.1
09 12.12 З 2 30 км 9/9 1020 м
[]
+1.3 -0.6 87 -2 -1 прохладно 1011.4 1000.2
10 12.12 З 1 19 км 9/1 1440 м
[]
+2.3 -0.5 82 +1 +1 тепло 1012.3 1001.1
11 12.12 ЮЗ 2 29 км 9/3 1230 м
[]
+3.9 +0.2 77 +2 +3 по сезону 1012.5 1001.4 0.0
12 12.12 З 3 30 км н/о +4.7 +0.3 73 +2 +2 по сезону 1012.8 1001.7 0.0
14 12.12 ЮЗ 2 35 км н/о +5.5 +0.7 71 +4 +4 тепло 1013.3 1002.2
13 12.12 ЮЗ 2 30 км н/о +5.7 +0.6 70 +3 +3 по сезону 1012.9 1001.8
15 12.12 ЮЗ 2 29 км н/о +5.4 +0.9 73 +4 +4 по сезону 1014.0 1002.9
16 12.12 ЮЗ 2 30 км 9/9 660 м
[]
+4.4 +1.2 80 +2 +2 тепло 1015.0 1003.9
17 12.12 ЮЗ 2 18 км н/о +3.2 +0.6 83 +1 +1 по сезону 1015.2 1004.0
18 12.12 ЮЗ 2 13 км н/о +2.6 +0.7 87 0 0 по сезону 1015.9 1004.7 -0.2 +5.8
20 12.12 Ю 2 20 км 9/9 1200 м
[Cu Sc]
+3.1 +1.1 87 +1 +1 тепло 1016.3 1005.1
19 12.12 ЮЗ 1 20 км 3/0
[Ac trans Ci fib]
+2.5 +0.7 88 +1 +1 по сезону 1016.1 1004.9
21 12.12 Ю 2 20 км 9/9 1500 м
[Sc]
+3.2 +1.1 86 +1 +1 по сезону 1016.6 1005.4
22 12.12 Ю 2 20 км 9/0
[Ac trans]
+3.2 +0.8 84 0 0 тепло 1016.4 1005.2
23 12.12 Ю 2 20 км 9/0
[Ac trans]
+2.8 +0.5 85 -0 -0 по сезону 1016.2 1005.0
00 13.12 Ю 2 21 км 10/3 330 м
[]
+2.9 +0.6 85 0 0 по сезону 1015.6 1004.4
02 13.12 Ю 2 25 км 9/1 330 м
[]
+2.8 +0.8 87 -0 -0 тепло 1014.5 1003.3
01 13.12 Ю 2 23 км 10/3 300 м
[]
+3.0 +0.9 86 +1 +1 тепло 1015.1 1003.9
03 13.12 Ю 2 30 км 9/3 300 м
[Sc Ac trans]
+3.1 +1.0 86 0 0 по сезону 1013.8 1002.6
04 13.12 Ю 3 30 км 9/9 330 м
[Sc]
+3.8 +1.5 85 0 0 тепло 1012.5 1001.4
05 13.12 Ю 3 30 км в посл. час дождь 9/8 1200 м
[Sc Ac trans]
+3.9 +1.4 84 +1 +1 тепло 1011.1 1000.0 0.0
06 13.12 Ю 3 30 км слабый дождь 9/9 300 м
[Cu Sc]
+4.6 +2.3 85 +1 +1 по сезону 1010.1 999.0 +2.2 +4.6 0.0
08 13.12 ЮЗ 4 2100 м дождь 10/9 240 м
[Sc]
+5.3 +4.3 93 +1 +1 тепло 1008.2 997.2 2
07 13.12 Ю 4 10 км слабый дождь 9/9 420 м
[Sc]
+4.6 +3.1 90 +1 +1 по сезону 1008.6 997.5 1
09 13.12 ЮЗ 3 6000 м слабый дождь 10/9 210 м
[Sc]
+5.7 +4.8 94 +2 +2 по сезону 1007.8 996.8 7
10 13.12 ЮЗ 3 3000 м слабый дождь 10/9 210 м
[Sc]
+6.3 +5.6 95 +3 +3 тепло 1007.0 996.0 0.8
11 13.12 ЮЗ 3 18 км слабая морось {дождь} 10/10 240 м
[]
+7.1 +6.2 94 +4 +4 тепло 1006.5 995.6 0.0
12 13.12 ЮЗ 3 2500 м дождь {морось} 10/9 150 м
[Frnb]
+7.6 +6.5 93 +5 +5 по сезону 1005.9 995.0 0.8
14 13.12 ЮЗ 3 17 км 10/9 420 м
[Sc]
+8.5 +6.6 88 +6 +6 тепло 1003.9 993.1
13 13.12 ЮЗ 3 18 км в посл. час дождь {морось} 10/9 300 м
[Sc]
+8.1 +6.6 90 +5 +5 тепло 1004.7 993.8 0.2
15 13.12 ЮЗ 4 8000 м слабый дождь {морось} 10/9 400 м
[Sc]
+8.7 +6.7 87 +6 +6 тепло 1002.7 991.9 0.2
16 13.12 ЮЗ 3 5000 м дождь 10/9 330 м
[Sc]
+8.6 +7.2 91 +6 +6 тепло 1001.2 990.4 0.8
17 13.12 ЮЗ 3 2700 м слабый дождь 10/9 240 м
[Frnb]
+8.8 +7.6 92 +6 +6 тепло 999.2 988.4 0.6
18 13.12 ЮЗ 3 3800 м дождь {морось} 10/9 100 м
[Frnb]
+8.8 +7.9 94 +6 +6 тепло 998.0 987.2 +4.5 +8.9 4
20 13.12 З 4 18 км слабый дождь 9/9 180 м
[Sc]
+9.1 +7.5 90 +6 +6 тепло 997.5 986.8 1
19 13.12 ЮЗ 3 3200 м слабый дождь 10/10 180 м
[Frnb]
+8.9 +8.1 95 +7 +7 тепло 997.4 986.6 1
21 13.12 З 3 60 км {дождь} 9/9 1500 м
[]
+7.8 +4.4 79 +5 +5 по сезону 998.4 987.6 3
22 13.12 З 4 30 км 1/1 2000 м
[Sc]
+7.5 +4.1 79 +4 +4 тепло 998.5 987.7
23 13.12 ЮЗ 3 30 км 9/9 660 м
[Cu Sc]
+7.7 +4.8 82 +5 +5 тепло 998.6 987.8 0.0
00 14.12 З 6 5000 м слабый дождь 10/10 700 м
[Cu Sc]
+8.1 +4.5 78 +4 +4 по сезону 998.7 987.9 0.0
02 14.12 З 5 40 км 1/1 800 м
[Cu hum]
+6.0 +1.3 72 +2 +2 тепло 1002.0 991.1
01 14.12 З 5 30 км в посл. час дождь 6/4 750 м
[Cu med, cong Ac trans]
+6.7 +3.1 78 +3 +3 тепло 1000.6 989.7 1
03 14.12 З 4 30 км {дождь} ясно +5.6 +1.3 74 +2 +2 по сезону 1003.1 992.1 1
04 14.12 ЮЗ 4 30 км ясно +4.9 +1.0 76 +1 +1 тепло 1003.3 992.3
05 14.12 ЮЗ 3 30 км ясно +4.7 +1.5 80 +1 +1 тепло 1003.5 992.5
06 14.12 ЮЗ 4 30 км {дождь} 1/0
[Ac trans]
+4.8 +1.1 77 +1 +1 по сезону 1003.4 992.4 +4.6 +9.3 4
08 14.12 ЮЗ 4 30 км 3/1 1300 м
[Sc Ac trans Ci fib]
+4.6 +1.3 79 +1 +1 тепло 1002.4 991.4
07 14.12 ЮЗ 4 17 км 3/1 1500 м
[Sc Ci fib]
+4.6 +1.3 79 +1 +1 по сезону 1003.0 992.0
09 14.12 ЮЗ 4 30 км 6/4 1300 м
[Sc Ac trans Ci fib]
+5.4 +1.3 75 +2 +2 по сезону 1002.6 991.6
10 14.12 ЮЗ 4 20 км 9/8 1200 м
[Cu Sc Ac trans]
+6.3 +1.6 72 +3 +3 тепло 1002.2 991.3
11 14.12 ЮЗ 3 12 км слабый ливневой дождь 9/8 700 м
[Cu Sc Ac trans]
+6.0 +3.0 81 +3 +3 по сезону 1001.6 990.7 0.2
12 14.12 ЮЗ 6
{12}
10 км в посл. час ливневой дождь 10/9 750 м
[Cu Sc]
+6.9 +3.5 79 +2 +2 по сезону 1000.4 989.5 0.4
14 14.12 ЮЗ 3 35 км 10/6 800 м
[]
+7.5 +3.5 76 +5 +5 тепло 997.9 987.1
13 14.12 ЮЗ 4 19 км в посл. час ливневой дождь 9/5 700 м
[Cu Sc Ac trans]
+7.2 +3.4 77 +4 +4 тепло 998.9 988.1
15 14.12 ЮЗ 3 20 км слабый ливневой дождь 10/9 700 м
[Cu Sc]
+6.8 +3.9 82 +4 +4 по сезону 997.1 986.3 0.2
16 14.12 З 2 13 км слабый ливневой дождь 10/9 660 м
[Cu Sc]
+5.8 +4.0 88 +3 +3 тепло 996.3 985.4 0.6
17 14.12 ЮЗ 3 25 км в посл. час ливневой дождь 9/9 870 м
[Cb cap]
+6.1 +3.8 85 +3 +3 тепло 995.2 984.4 0.0
18 14.12 ЮЗ 2 50 км {ливн. осадки, дождь} 10/10 1500 м
[]
+3.3 +1.3 87 0 0 по сезону 994.9 983.9 +3.3 +7.6 3
20 14.12 З 3 35 км 9/3 840 м
[]
+4.4 +2.6 88 +1 +1 тепло 995.0 984.1
19 14.12 З 1 40 км в посл. час ливневой дождь 9/8 600 м
[Cu Sc]
+3.7 +1.9 88 +2 +2 тепло 995.0 984.1
21 14.12 З 4 12 км слабый ливневой дождь 9/9 660 м
[Cu Sc]
+4.5 +2.0 84 +1 +1 по сезону 995.4 984.5 0.2
22 14.12 ЮЗ 2 55 км {ливн. осадки, дождь} 9/9 500 м
[]
+3.9 +1.6 85 +1 +1 тепло 995.5 984.6 0.0
23 14.12 ЮЗ 3 25 км 6/4 480 м
[Sc Ac trans Ci sp]
+3.5 +1.0 84 -0 -0 по сезону 996.0 985.0
00 15.12 ЮЗ 3 45 км {ливн. осадки, дождь} 10/1 450 м
[]
+3.4 +1.1 85 -0 -0 по сезону 995.8 984.8 0.0
02 15.12 ЮЗ 3 35 км {ливн. осадки, дождь} 10/9 400 м
[Cu Sc]
+4.0 +1.7 85 0 0 тепло 995.2 984.3 0.0
01 15.12 ЮЗ 3 19 км слабый ливневой дождь 9/9 450 м
[Sc]
+3.6 +1.5 86 0 0 по сезону 995.3 984.4 0.0
03 15.12 З 3 35 км {ливн. осадки, дождь} 10/9 450 м
[Cu Sc]
+4.9 +2.1 82 +1 +1 по сезону 995.4 984.5 0.0
04 15.12 З 3 35 км слабый ливневой дождь 9/9 500 м
[Cu Sc]
+5.1 +2.4 83 +2 +2 тепло 995.9 985.0 0.0
05 15.12 З 3 35 км в посл. час ливневой дождь 9/9 450 м
[Cu Sc]
+5.0 +2.7 85 +1 +1 тепло 996.7 985.8 0.6
06 15.12 ЮЗ 2 35 км {ливн. осадки, дождь} 3/3 300 м
[Cu Sc]
+4.1 +1.8 85 +1 +1 по сезону 997.3 986.3 +3.3 +5.2 0.8
08 15.12 ЮЗ 3 25 км 6/0
[As trans Ci fib]
+3.1 +1.3 88 -1 -1 тепло 997.6 986.6
07 15.12 ЮЗ 2 25 км 4/1 420 м
[Sc Ci fib]
+3.5 +1.4 86 +1 +1 по сезону 997.4 986.4
09 15.12 ЮЗ 3 40 км 8/1 400 м
[]
+4.2 +1.7 84 +1 +1 по сезону 997.5 986.6
10 15.12 ЮЗ 3 25 км 8/3 420 м
[Cu med, cong As trans Ci fib]
+5.2 +2.2 81 +2 +2 тепло 997.7 986.8
11 15.12 ЮЗ 3 25 км в посл. час ливневой дождь 9/9 450 м
[Cu med, cong]
+5.4 +2.7 83 +2 +2 по сезону 997.5 986.6 0.0
12 15.12 ЮЗ 4 30 км {ливн. осадки, дождь} 9/8 420 м
[Cu med, cong]
+5.8 +2.8 81 +2 +2 по сезону 996.9 986.0 0.0
13 15.12 ЮЗ 3 20 км слабый ливневой дождь 9/8 500 м
[Cb cap]
+5.6 +3.1 84 +2 +2 тепло 996.5 985.6 0.2

 

Местоположение метеостанции Paris Orly Airport (Франция): широта 48.72 долгота 2.38 высота над уровнем моря 90 м.

В архиве по умолчанию представлена погода в Paris Orly Airport за последнюю неделю. Архивные данные за месяц целиком и за предыдущие месяцы, начиная с января 2011 года, Вы можете получить, выбрав интересующий диапазон дат из раскрывающегося списка и нажав кнопку "Ввод!".

Внимание! Время в таблицах - всемирное. Для получения местного времени необходимо прибавить поправку, которая в Paris Orly Airport равна 1 ч.

Смотрите также архив погоды в соседних городах и на ближайших метеорологических станциях:

Погода в Paris (Франция) (12 км)
Погода в Villacoublay (Франция) (14 км)
Погода в Melun (Франция) (25 км)
Погода в Le Bourget (Франция) (28 км)
Погода в Trappes (Франция) (28 км)
Погода в Charles De Gaulle Airport (Франция) (35 км)
Погода в Cormeilles (Франция) (48 км)
Погода в Creil (Франция) (60 км)
Погода в Chartres (Франция) (70 км)
Погода в Beauvais (Франция) (86 км)

Пояснения к столбцам:

Ветер - указаны скорость ветра в м/с - средняя за 10 мин, порывы в срок и между сроками (в фигурных скобках) и направление, откуда дует ветер: С - северный, СВ - северо-восточный, В - восточный, ЮВ - юго-восточный, Ю - южный, ЮЗ - юго-западный, З - западный, СЗ - северо-западный.
Видимость - горизонтальная дальность видимости в метрах или километрах. При видимости от 1 до 10 км при отсутствии осадков обычно наблюдается дымка, при ухудшении видимости до 1 км и менее - туман. В сухую погоду видимость может ухудшаться дымом, пылью или мглою.
Явления - указаны атмосферные явления, наблюдавшиеся в срок или в последний час перед сроком; фигурными скобками обозначены явления, наблюдавшиеся между сроками (за 1-3 часа до срока); квадратными скобками обозначены град или гололедные отложения с указанием их диаметра в мм.
Облачность - указаны через наклонную черту общая и нижняя облачность в баллах и высота нижней границы облаков в метрах; квадратными скобками обозначены формы облаков: Ci - перистые, Cs - перисто-слоистые, Cc - перисто-кучевые, Ac - высококучевые, As - высокослоистые, Sc - слоисто-кучевые, Ns - слоисто-дождевые, Cu - кучевые, Cb - кучево-дождевые. Подробнее классификацию облаков см. в Атласе облаков (PDF).
T - Температура воздуха - температура, измеренная на высоте 2 м над землей.
Td - Температура точки росы - температура, при понижении до которой содержащийся в воздухе водяной пар достигнет насыщения.
f - Относительная влажность воздуха - влажноcть воздуха, измеренная на высоте 2 м над землей.
Te - Эффективная температура - температура, которую ощущает одетый по сезону человек в тени. Характеристика душности погоды. При расчете учитывается влияние влажности воздуха и скорости ветра на теплоощущения человека.
Tes - Эффективная температура на солнце - температура, которую ощущает человек, с поправкой на солнечный нагрев. Характеристика знойности погоды. Зависит от высоты солнца над горизонтом, облачности и скорости ветра. Ночью, в пасмурную погоду, а также при ветре 12 м/с и более поправка равна нулю.
P - Атмосферное давление - приведенное к уровню моря атмосферное давление.
Po - Атмосферное давление - измеренное на уровне метеостанции атмосферное давление.
Tmin - Минимальная температура - минимум температуры воздуха на высоте 2 м над землей.
Tmax - Максимальная температура - максимум температуры воздуха на высоте 2 м над землей.
R - Количество осадков - Количество выпавших осадков за период времени, мм. При наведении курсора мыши на число - период времени, за который выпало указанное количество осадков.
R24 - Количество осадков - Количество выпавших осадков за 24 часа, мм.
S - Снежный покров - Высота снежного покрова, см. При наведении курсора мыши на число - состояние снежного покрова и степень покрытия местности в баллах.